This demonstration page uses our WeatherBlox Daily Observations layout. Learn more.

Left ArrowRight Arrow

Hourly Observations for July 21, 2022

Temp ( °F °C ) Dew Point ( °F °C ) Humidity (%) Winds ( mph kmh ) Pressure ( in mb ) Visibility ( mi km ) Precip ( " mm )
12:53 am 00:53 Clear 56 13.3 45 7.2 67 67 Calm 30.02 1017 10 16 0.00 0.00
1:53 am 01:53 Clear 53 11.7 42 5.6 66 66 SE 5 7 30.03 1017 10 16 0.00 0.00
2:53 am 02:53 Clear 52 11.1 44 6.7 75 75 Calm 30.03 1017 10 16 0.00 0.00
3:53 am 03:53 Clear 51 10.6 43 6.1 74 74 Calm 30.03 1017 10 16 0.00 0.00
4:53 am 04:53 Clear 48 8.9 41 5 77 77 Calm 30.05 1018 10 16 0.00 0.00
5:53 am 05:53 Clear 47 8.3 40 4.4 77 77 Calm 30.06 1018 10 16 0.00 0.00
6:53 am 06:53 Sunny 48 8.9 42 5.6 80 80 WSW 3 6 30.08 1019 10 16 0.00 0.00
7:53 am 07:53 Sunny 58 14.4 45 7.2 62 62 Calm 30.09 1019 10 16 0.00 0.00
8:53 am 08:53 Partly Cloudy 65 18.3 46 7.8 51 51 Calm 30.11 1020 10 16 0.00 0.00
9:53 am 09:53 Sunny 74 23.3 45 7.2 36 36 N 5 7 30.09 1019 10 16 0.00 0.00
10:53 am 10:53 Mostly Sunny 82 27.8 43 6.1 25 25 N 7 11 30.07 1018 10 16 0.00 0.00
11:53 am 11:53 Sunny 85 29.4 41 5 21 21 N 6 9 30.06 1018 10 16 0.00 0.00
12:53 pm 12:53 Sunny 88 31.1 41 5 19 19 W 8 13 30.02 1017 10 16 0.00 0.00
1:53 pm 13:53 Sunny 90 32.2 41 5 18 18 VRB 5 7 30.00 1016 10 16 0.00 0.00
2:53 pm 14:53 Sunny 91 32.8 38 3.3 15 15 VRB 3 6 29.97 1015 10 16 0.00 0.00
3:53 pm 15:53 Sunny 94 34.4 37 2.8 14 14 WNW 13 20 29.94 1014 10 16 0.00 0.00
4:53 pm 16:53 Sunny 93 33.9 35 1.7 13 13 W 9 15 29.93 1014 10 16 0.00 0.00
5:53 pm 17:53 Sunny 92 33.3 32 0 12 12 NW 12 19 29.92 1013 10 16 0.00 0.00
6:53 pm 18:53 Sunny 84 28.9 35 1.7 17 17 WNW 7 11 29.94 1014 10 16 0.00 0.00
7:53 pm 19:53 Sunny 81 27.2 42 5.6 25 25 Calm 29.92 1013 10 16 0.00 0.00
8:53 pm 20:53 Clear 71 21.7 42 5.6 35 35 Calm 29.95 1014 10 16 0.00 0.00
9:53 pm 21:53 Clear 67 19.4 43 6.1 42 42 Calm 29.95 1014 10 16 0.00 0.00
10:53 pm 22:53 Clear 64 17.8 43 6.1 46 46 Calm 29.95 1014 10 16 0.00 0.00
11:53 pm 23:53 Clear 60 15.6 42 5.6 52 52 Calm 29.95 1014 10 16 0.00 0.00

Powered by AerisWeather